#timestamp,LO_Frequency,Hit,StdDev 
1649818815.5,286046996.6,N
1649818835.4,286046995.5,N
1649818855.2,286046993.3,N
1649818875.0,286046996.8,N
1649818875.9,286046996.8,N
1649818895.8,286047000.3,N
1649818915.6,286047007.2,N
1649818935.5,286047006.2,N
1649818955.3,286047006.9,N
1649818975.1,286047008.2,N
1649818995.9,286047004.2,N
1649819015.7,286047004.4,N
1649819035.5,286047002.9,N
1649819055.4,286047006.0,N
1649819075.2,286047003.8,N
1649819095.1,286046999.8,N
1649819096.0,286046999.8,N
1649819115.8,286046999.8,N
1649819135.6,286046999.9,N
1649819155.5,286047004.3,N
1649819175.3,286047005.5,N
1649819195.1,286047002.3,N
1649819215.9,286046997.2,N
1649819235.7,286047000.8,N
1649819255.6,286046996.5,N
1649819275.4,286046998.2,N
1649819295.2,286047001.7,N
1649819315.1,286047001.6,N
1649819316.0,286047001.6,N
1649819335.8,286046999.9,N
1649819355.6,286047002.0,N
1649819375.5,286047006.4,N
1649819395.3,286047010.3,N
1649819415.2,286047007.2,N
1649819435.9,286047004.6,N
1649819455.7,286047007.0,N
1649819475.6,286047007.6,N
1649819495.4,286047009.5,N
1649819515.2,286047009.7,N
1649819535.1,286047010.4,N
1649819536.0,286047010.4,N
1649819555.8,286047007.9,N
1649819575.7,286047007.8,N
1649819595.5,286047010.0,N
1649819615.3,286047012.9,Y
1649819635.2,286047007.1,P
1649819655.0,286047009.0,P
1649819655.9,286047009.0,P
1649819675.8,286047006.2,Y
1649819695.6,286047001.6,P
1649819715.4,286046998.9,N
1649819735.3,286046999.8,N
1649819755.1,286047002.6,N
1649819775.8,286047002.5,N
1649819795.7,286046998.1,N
1649819815.5,286047000.1,N
1649819835.4,286046998.9,N
1649819855.2,286046993.1,N
1649819875.0,286046988.7,Y
1649819875.9,286046988.7,P
1649819895.8,286046987.1,N
1649819915.6,286046992.6,N
1649819935.4,286046990.9,N
1649819955.3,286046990.0,N
1649819975.1,286046993.5,N
1649819995.9,286046993.3,N
1649820015.7,286046999.2,N
1649820035.5,286046994.0,N
1649820055.4,286046991.6,N
1649820075.2,286046991.7,N
1649820095.1,286046992.0,N
1649820096.0,286046992.0,N
1649820115.8,286046996.8,N
1649820135.6,286046993.2,N
1649820155.5,286046992.0,N
1649820175.3,286046989.0,Y
1649820195.1,286046994.7,P
1649820215.9,286046998.1,N
1649820235.7,286047000.7,N
1649820255.6,286047002.1,N
1649820275.4,286047001.6,N
1649820295.2,286047005.6,N
1649820315.1,286047001.4,N
1649820316.0,286047001.4,N
1649820335.8,286047009.0,N
1649820355.6,286047007.4,N
1649820375.5,286047003.3,N
1649820395.3,286047002.8,N
1649820415.2,286047006.0,N
1649820435.9,286047010.5,N
1649820455.7,286047009.2,N
1649820475.6,286047005.1,N
1649820495.4,286046998.5,N
1649820515.2,286046999.2,N
1649820535.1,286047002.8,N
1649820536.0,286047002.8,N
1649820555.8,286047001.4,N
1649820575.7,286047003.3,N
1649820595.5,286047003.7,N
1649820615.3,286047004.8,N
1649820635.2,286047008.4,N
1649820655.9,286047005.3,N
1649820675.7,286047004.4,N
1649820695.6,286047002.7,N
1649820715.4,286047002.5,N
1649820735.2,286047001.7,N
1649820755.1,286047004.9,N
1649820756.0,286047004.9,N
1649820775.8,286047005.1,N
1649820795.7,286047005.7,N
1649820815.5,286047004.4,N
1649820835.3,286047000.0,N
1649820855.2,286047006.6,N
1649820875.0,286047007.2,N
1649820875.9,286047007.2,N
1649820895.8,286047008.4,Y
1649820915.6,286047005.3,P
1649820935.4,286047004.4,P
1649820955.3,286047001.8,P
1649820975.1,286046998.9,N
1649820995.9,286046996.8,N
1649821015.7,286046999.8,N
1649821035.5,286047006.8,N
1649821055.4,286047008.8,N
1649821075.2,286047003.1,N
1649821095.0,286047001.8,N
1649821095.9,286047001.8,N
1649821115.8,286047000.2,N
1649821135.6,286047002.8,N
1649821155.5,286046998.6,N
1649821175.3,286046997.4,N
1649821195.1,286046993.8,N
1649821215.9,286046995.9,N
1649821235.7,286047001.0,N
1649821255.5,286046999.4,N
1649821275.4,286046992.1,N
1649821295.2,286046992.6,N
1649821315.1,286046988.3,N
1649821316.0,286046988.3,N
1649821335.8,286046991.4,N
1649821355.6,286046986.0,N
1649821375.5,286046991.2,N
1649821395.3,286046988.7,N
1649821415.1,286046991.4,N
1649821435.9,286046996.3,N
1649821455.7,286046996.2,N
1649821475.6,286046985.5,N
1649821495.4,286046984.8,N
1649821515.2,286046984.7,N
1649821535.1,286046986.7,N
1649821536.0,286046986.7,N
1649821555.8,286046989.8,N
1649821575.6,286046990.3,N
1649821595.5,286046987.3,N
1649821615.3,286046990.4,N
1649821635.2,286046989.6,N
1649821655.9,286046980.9,Y
1649821675.7,286046996.0,P
1649821695.6,286046997.0,N
1649821715.4,286046997.8,N
1649821735.2,286046999.1,N
1649821755.1,286047000.7,N
1649821756.0,286047000.7,N
1649821775.8,286047001.1,N
1649821795.7,286047004.3,N
1649821815.5,286046999.3,N
1649821835.3,286046993.5,N
1649821855.2,286046999.3,N
1649821875.0,286046995.6,N
1649821875.9,286046995.6,N
1649821895.7,286046993.6,N
1649821915.6,286046999.5,N
1649821935.4,286046995.3,N
1649821955.3,286046996.5,N
1649821975.1,286046999.3,N
1649821976.0,286046999.3,N
1649821995.8,286046998.0,N
1649822015.7,286046993.6,N
1649822035.5,286046998.7,N
1649822055.3,286046999.5,N
1649822075.2,286046992.0,N
1649822095.0,286046992.5,N
1649822095.9,286046992.5,N
1649822115.8,286046997.4,N
1649822135.6,286047000.2,N
1649822155.4,286047004.2,N
1649822175.3,286047006.8,N
1649822195.1,286047009.3,N
1649822215.8,286047011.3,N
1649822235.7,286047009.7,N
1649822255.5,286047013.4,N
1649822275.4,286047015.0,N
1649822295.2,286047007.2,N
1649822315.0,286047004.7,N
1649822315.9,286047004.7,N
1649822335.8,286047008.5,N
1649822355.6,286047009.6,N
1649822375.4,286047009.4,N
1649822395.3,286047012.8,N
